[[{"header":{"parameterUnit":"m.s-1","parameterCategory":1,"la1":30.2991,"la2":30.254,"lo1":-89.0895,"lo2":-89.0444,"dy":0.0017,"dx":0.0017,"nx":28,"ny":28,"refTime":"2024-04-18T09:00:00:Z","depth":0,"parameterNumber":2,"parameterNumberName":"U-component_of_WINDS"},"data":[0,0,0,0,0,0,0,0,0,0,0,0,0,0,0,0,0,0,0,0,0,0,0,0,0,0,0,0,0,0,0,0,0,0,0,0,0,0,0,0,0,0,0,0,0,0,0,0,0,0,0,0,0,0,0,0,0,0,-0.1325,-0.1326,0,-0.1359,-0.1359,-0.136,-0.1387,-0.1387,-0.1387,-0.1388,-0.1422,-0.1423,-0.1423,0,0,0,0,0,0,0,0,0,0,0,0,0,-0.1287,-0.1287,-0.1325,-0.1326,-0.1326,-0.1359,-0.1359,-0.136,-0.1387,-0.1387,-0.1387,-0.1388,-0.1422,-0.1423,-0.1424,0,0,0,0,0,0,0,0,0,0,0,0,0,-0.131,-0.1287,-0.1325,-0.1344,-0.1346,-0.1359,-0.1359,-0.136,-0.1387,-0.1387,-0.1387,-0.1388,-0.1422,-0.1423,-0.1424,-0.1421,0,0,-0.1427,-0.1427,0,0,0,0,0,0,0,0,-0.1309,-0.1311,-0.134,-0.1342,-0.1345,-0.1369,-0.1358,-0.138,-0.1387,-0.1371,-0.1388,-0.1388,-0.1404,-0.1407,-0.1412,-0.1423,-0.1424,-0.1427,-0.1427,-0.1428,-0.1428,0,0,0,0,0,0,0,-0.1307,-0.131,-0.1339,-0.1341,-0.1343,-0.1351,-0.1355,-0.1363,-0.1385,-0.1372,-0.1374,-0.1378,-0.1405,-0.1411,-0.1413,-0.1425,-0.1427,-0.1428,-0.1428,-0.1429,-0.1438,-0.1438,0,0,0,0,0,0,-0.1302,-0.1309,-0.1337,-0.134,-0.1327,-0.1351,-0.1355,-0.1361,-0.1385,-0.1389,-0.1378,-0.1379,-0.1409,-0.1412,-0.1414,-0.1414,-0.1428,-0.1429,-0.1429,-0.1438,-0.1438,-0.1438,0,0,0,0,0,0,-0.1302,-0.1305,-0.1336,-0.1325,-0.1329,-0.1351,-0.1357,-0.1361,-0.1367,-0.1389,-0.1393,-0.1379,-0.1409,-0.1413,-0.142,-0.1416,-0.1429,-0.143,-0.1439,-0.1438,-0.1438,-0.1414,0,0,0,0,0,0,-0.13,-0.1304,-0.1303,-0.1324,-0.133,-0.134,-0.1357,-0.1362,-0.1368,-0.1371,-0.1391,-0.1395,-0.141,-0.1418,-0.1421,-0.1417,-0.1431,-0.1439,-0.1438,-0.1438,-0.1415,-0.1412,-0.141,0,0,0,0,0,-0.1299,-0.1294,-0.1303,-0.1306,-0.1329,-0.134,-0.1343,-0.136,-0.1368,-0.1367,-0.1382,-0.1394,-0.1416,-0.1419,-0.1422,-0.1419,-0.1439,-0.1439,-0.1438,-0.1416,-0.1413,-0.141,0,0,0,0,0,0,-0.1271,-0.1297,-0.1307,-0.1309,-0.1322,-0.1345,-0.1344,-0.1356,-0.1367,-0.1369,-0.139,-0.1395,-0.14,-0.141,-0.1412,-0.1419,-0.143,-0.1429,-0.1412,-0.1409,-0.1407,-0.1404,-0.1432,0,0,0,0,0,-0.1266,-0.1272,-0.1295,-0.1295,-0.1301,-0.1322,-0.1327,-0.134,-0.1354,-0.1359,-0.1374,-0.1388,-0.1398,-0.1404,-0.1415,-0.1417,-0.1422,-0.1417,-0.1414,-0.1412,-0.1412,-0.1415,-0.1413,-0.1435,-0.1435,-0.1435,0,0,-0.1254,-0.1269,-0.1272,-0.129,-0.1301,-0.1309,-0.1326,-0.1332,-0.1338,-0.136,-0.1368,-0.138,-0.1397,-0.1402,-0.1404,-0.141,-0.1407,-0.1411,-0.1409,-0.141,-0.1414,-0.1412,-0.141,-0.1434,-0.1435,-0.1435,0,0,-0.1236,-0.1248,-0.125,-0.1261,-0.1279,-0.1293,-0.1293,-0.1314,-0.1323,-0.1331,-0.1348,-0.1356,-0.1373,-0.1384,-0.1392,-0.1382,-0.1394,-0.1385,-0.1372,-0.1375,-0.1374,-0.1372,-0.1369,-0.1368,-0.1384,-0.1384,-0.1384,0,-0.1219,-0.123,-0.1249,-0.1255,-0.1263,-0.1284,-0.1287,-0.1298,-0.1317,-0.1323,-0.1329,-0.1352,-0.1365,-0.1374,-0.1371,-0.1377,-0.1379,-0.1382,-0.1372,-0.1371,-0.137,-0.1368,-0.1366,-0.1383,-0.1383,-0.1383,-0.1383,0,-0.1209,-0.1216,-0.1216,-0.1235,-0.1243,-0.1248,-0.1268,-0.1274,-0.1287,-0.13,-0.131,-0.1326,-0.1341,-0.1344,-0.1356,-0.1355,-0.1358,-0.1368,-0.1379,-0.1367,-0.1365,-0.1364,-0.1381,-0.1381,-0.1382,-0.1382,0,0,-0.1173,-0.1204,-0.1204,-0.1213,-0.1235,-0.1242,-0.1248,-0.1263,-0.1268,-0.1282,-0.1288,-0.1303,-0.1313,-0.1322,-0.1336,-0.1339,-0.1331,-0.1349,-0.135,-0.1345,-0.1333,-0.1325,-0.1323,-0.134,-0.1339,-0.1339,-0.1331,0,-0.1159,-0.117,-0.1189,-0.1194,-0.1203,-0.1224,-0.123,-0.1244,-0.1258,-0.1267,-0.1283,-0.1293,-0.1305,-0.1311,-0.1315,-0.1331,-0.1328,-0.1332,-0.1346,-0.1347,-0.1341,-0.1322,-0.1314,-0.1305,-0.1331,-0.1331,-0.133,0,-0.1143,-0.1156,-0.1163,-0.1186,-0.119,-0.1194,-0.1211,-0.1219,-0.1237,-0.1247,-0.1258,-0.1274,-0.1283,-0.1293,-0.1306,-0.1308,-0.1316,-0.1325,-0.1325,-0.1327,-0.1337,-0.1324,-0.1303,-0.1302,-0.1329,-0.1329,-0.1329,0,-0.1117,-0.1136,-0.1143,-0.1151,-0.1178,-0.1181,-0.1192,-0.121,-0.1219,-0.1233,-0.1239,-0.1254,-0.1263,-0.1275,-0.1294,-0.13,-0.1306,-0.1318,-0.1315,-0.1315,-0.1315,-0.1314,-0.1295,-0.1319,-0.1319,-0.1319,-0.1319,0,-0.1099,-0.1103,-0.1132,-0.1136,-0.1142,-0.1164,-0.1168,-0.1182,-0.1198,-0.1206,-0.1226,-0.1233,-0.1259,-0.127,-0.1285,-0.1295,-0.1298,-0.1307,-0.1311,-0.1305,-0.1304,-0.131,-0.1311,-0.1319,-0.1319,-0.1319,-0.1319,0,-0.1071,-0.109,-0.11,-0.1125,-0.1131,-0.1134,-0.1156,-0.1162,-0.1177,-0.1187,-0.1191,-0.1215,-0.1229,-0.125,-0.127,-0.1281,-0.1288,-0.1294,-0.1282,-0.1284,-0.1281,-0.1281,-0.1264,-0.1264,-0.1288,-0.1288,-0.1288,0,-0.1058,-0.1061,-0.1087,-0.1094,-0.1105,-0.1115,-0.1124,-0.1147,-0.1155,-0.1177,-0.1181,-0.1196,-0.121,-0.1231,-0.1251,-0.1267,-0.1274,-0.1268,-0.1277,-0.1271,-0.1275,-0.1275,-0.1276,-0.1265,-0.1265,-0.1264,-0.1264,0,-0.1033,-0.1043,-0.1055,-0.1071,-0.1082,-0.1095,-0.111,-0.1115,-0.1141,-0.115,-0.1164,-0.1175,-0.1196,-0.1212,-0.1231,-0.1244,-0.1259,-0.1261,-0.1262,-0.1256,-0.1248,-0.1253,-0.1276,-0.1261,-0.1262,-0.1262,-0.1262,-0.1262,-0.1013,-0.1017,-0.1036,-0.105,-0.1063,-0.1077,-0.1084,-0.1101,-0.1113,-0.1132,-0.1145,-0.1159,-0.1179,-0.1207,-0.1219,-0.1231,-0.1237,-0.1238,-0.1238,-0.1238,-0.1236,-0.1247,-0.1235,-0.1235,-0.1235,-0.1235,-0.1235,0,-0.099,-0.1003,-0.1015,-0.1036,-0.1047,-0.106,-0.1078,-0.1086,-0.1098,-0.1115,-0.1129,-0.1147,-0.1162,-0.1184,-0.1202,-0.1208,-0.1215,-0.1212,-0.1212,-0.1215,-0.1229,-0.1227,-0.1206,-0.1206,-0.1206,-0.1206,-0.1206,-0.1206,-0.0979,-0.0988,-0.1,-0.1017,-0.1031,-0.1045,-0.1054,-0.1067,-0.1081,-0.11,-0.1114,-0.1128,-0.1148,-0.1167,-0.1183,-0.1189,-0.1195,-0.119,-0.1198,-0.1211,-0.1213,-0.1216,-0.1214,-0.1191,-0.1191,-0.1183,-0.1183,-0.1183]},{"header":{"parameterUnit":"m.s-1","parameterCategory":1,"la1":30.2991,"la2":30.254,"lo1":-89.0895,"lo2":-89.0444,"dy":0.0017,"dx":0.0017,"nx":28,"ny":28,"refTime":"2024-04-18T09:00:00:Z","depth":0,"parameterNumber":3,"parameterNumberName":"V-component_of_WINDS"},"data":[0,0,0,0,0,0,0,0,0,0,0,0,0,0,0,0,0,0,0,0,0,0,0,0,0,0,0,0,0,0,0,0,0,0,0,0,0,0,0,0,0,0,0,0,0,0,0,0,0,0,0,0,0,0,0,0,0,0,4.7247,4.7247,0,4.7285,4.7286,4.7286,4.722,4.7218,4.7216,4.7214,4.725,4.7253,4.7256,0,0,0,0,0,0,0,0,0,0,0,0,0,4.7113,4.7116,4.7247,4.7247,4.7248,4.7285,4.7286,4.7286,4.7221,4.7218,4.7215,4.7213,4.7249,4.7253,4.7256,0,0,0,0,0,0,0,0,0,0,0,0,0,4.7163,4.7117,4.7247,4.722,4.7218,4.7285,4.7286,4.7286,4.7221,4.7218,4.7215,4.7212,4.7248,4.7252,4.7257,4.7352,0,0,4.7271,4.7273,0,0,0,0,0,0,0,0,4.7161,4.7168,4.7223,4.7222,4.722,4.7245,4.7252,4.7308,4.7222,4.722,4.7214,4.721,4.7251,4.7255,4.7269,4.7353,4.7355,4.7271,4.7274,4.7276,4.7277,0,0,0,0,0,0,0,4.7157,4.7166,4.7262,4.7224,4.7222,4.7204,4.7208,4.7262,4.7253,4.722,4.7215,4.7221,4.7249,4.7265,4.727,4.7355,4.7271,4.7275,4.7278,4.728,4.7518,4.7522,0,0,0,0,0,0,4.7157,4.7164,4.7261,4.7263,4.7181,4.721,4.7213,4.724,4.7253,4.7252,4.7224,4.7218,4.7259,4.7265,4.7271,4.7383,4.7276,4.728,4.7283,4.7515,4.7519,4.7523,0,0,0,0,0,0,4.7155,4.7167,4.7259,4.7212,4.7223,4.7215,4.7246,4.7242,4.7258,4.7256,4.7253,4.7242,4.7257,4.7264,4.7332,4.7383,4.7282,4.7286,4.751,4.7516,4.7521,4.7607,0,0,0,0,0,0,4.7151,4.7166,4.7203,4.7214,4.7225,4.7321,4.7249,4.7246,4.7267,4.7259,4.7272,4.7271,4.7255,4.7326,4.7337,4.7387,4.729,4.7506,4.7513,4.7519,4.76,4.7615,4.7628,0,0,0,0,0,4.7147,4.7225,4.7205,4.7217,4.7271,4.7324,4.7331,4.7311,4.7271,4.7308,4.7306,4.7271,4.7375,4.7333,4.7345,4.7398,4.7503,4.7511,4.7519,4.7594,4.7612,4.7627,0,0,0,0,0,0,4.722,4.7226,4.7204,4.7288,4.7307,4.7313,4.7359,4.7331,4.7361,4.7352,4.7326,4.7329,4.7402,4.7406,4.7359,4.749,4.7432,4.7443,4.7485,4.7502,4.7516,4.7514,4.7294,0,0,0,0,0,4.7246,4.7289,4.7292,4.7366,4.7376,4.7366,4.7388,4.7372,4.7389,4.7396,4.7399,4.7416,4.7453,4.7477,4.7511,4.76,4.7601,4.7642,4.7656,4.7667,4.7677,4.7724,4.7742,4.755,4.755,4.7549,0,0,4.73,4.7309,4.7338,4.7381,4.7393,4.7438,4.7373,4.7423,4.7455,4.7403,4.7468,4.747,4.7488,4.7566,4.7601,4.7572,4.7731,4.7677,4.7687,4.769,4.7735,4.7753,4.7769,4.7555,4.7554,4.7553,0,0,4.7422,4.7433,4.7496,4.7509,4.7529,4.7521,4.7536,4.7547,4.7547,4.7612,4.7574,4.7611,4.7675,4.7689,4.7704,4.7831,4.78,4.7842,4.7916,4.7962,4.7977,4.7991,4.8036,4.8053,4.7852,4.7852,4.7852,0,4.7486,4.7553,4.7531,4.7584,4.7604,4.7559,4.7623,4.7636,4.7665,4.768,4.7647,4.7726,4.7734,4.7816,4.7847,4.7861,4.7877,4.7841,4.7977,4.799,4.8002,4.8045,4.8063,4.7857,4.7857,4.7856,4.7856,0,4.7632,4.7679,4.7727,4.7758,4.7783,4.7841,4.7826,4.7854,4.7835,4.7831,4.7897,4.7905,4.794,4.7957,4.7939,4.8036,4.8018,4.7982,4.7923,4.8026,4.8066,4.8083,4.7865,4.7863,4.7861,4.786,0,0,4.7802,4.7819,4.7837,4.7851,4.7868,4.7904,4.7959,4.7994,4.8018,4.8039,4.8084,4.8139,4.8106,4.8123,4.8106,4.8146,4.8246,4.8105,4.8105,4.8131,4.8355,4.8383,4.8402,4.8225,4.8228,4.8231,4.8353,0,4.7923,4.802,4.8002,4.8096,4.8139,4.8096,4.8144,4.816,4.8157,4.8192,4.8188,4.8228,4.818,4.8191,4.8229,4.8226,4.8291,4.8217,4.8267,4.8269,4.8266,4.8423,4.8453,4.8569,4.8369,4.8371,4.8373,0,4.8079,4.8107,4.8206,4.8217,4.8234,4.8278,4.8308,4.8342,4.8358,4.8353,4.8373,4.8347,4.8401,4.8341,4.8415,4.8365,4.8384,4.8386,4.839,4.8395,4.8329,4.8433,4.8605,4.8623,4.8398,4.8396,4.8394,0,4.8194,4.8256,4.8324,4.8336,4.835,4.8382,4.8389,4.8402,4.8424,4.845,4.8464,4.8495,4.8512,4.8537,4.852,4.8478,4.8597,4.8535,4.8594,4.8595,4.8622,4.8621,4.88,4.8633,4.8632,4.8632,4.8632,0,4.8333,4.8395,4.8376,4.8417,4.8485,4.8462,4.853,4.8532,4.8544,4.8584,4.8548,4.8587,4.8562,4.8598,4.8585,4.8648,4.8655,4.8653,4.8649,4.8657,4.8657,4.867,4.8662,4.8636,4.8635,4.8635,4.8634,0,4.8474,4.8463,4.8534,4.8541,4.8545,4.8595,4.86,4.8639,4.8633,4.8684,4.8695,4.8685,4.8726,4.8711,4.8754,4.8745,4.8826,4.8811,4.8822,4.8818,4.8878,4.8873,4.9073,4.9098,4.8913,4.8915,4.8916,0,4.8564,4.8611,4.8624,4.8649,4.8659,4.8699,4.8722,4.87,4.8725,4.8747,4.8782,4.882,4.8849,4.8915,4.8912,4.8944,4.893,4.8998,4.8935,4.8942,4.8932,4.8931,4.8935,4.9011,4.9013,4.9015,4.9016,0,4.8725,4.8717,4.8751,4.8784,4.8813,4.8837,4.8858,4.888,4.886,4.8889,4.8931,4.8953,4.8997,4.9035,4.9064,4.907,4.9041,4.9036,4.9052,4.9061,4.9066,4.9065,4.8857,4.9032,4.903,4.9029,4.9028,4.9028,4.8843,4.8883,4.8899,4.8938,4.8952,4.8973,4.9009,4.9008,4.9042,4.9078,4.9062,4.911,4.9124,4.916,4.917,4.9207,4.9181,4.9203,4.9209,4.9215,4.9223,4.9059,4.9212,4.9211,4.9211,4.9211,4.921,0,4.9003,4.9011,4.9048,4.9079,4.911,4.9079,4.91,4.9128,4.9171,4.9187,4.9217,4.9264,4.9301,4.93,4.9333,4.9363,4.935,4.9372,4.937,4.9372,4.9244,4.9228,4.9382,4.9382,4.9382,4.9382,4.9382,4.9382,4.9091,4.9157,4.9151,4.9223,4.923,4.9278,4.9293,4.9311,4.9324,4.9379,4.9409,4.9409,4.9418,4.9451,4.9483,4.9481,4.9496,4.9524,4.9518,4.9398,4.9381,4.9365,4.935,4.9527,4.9527,4.9643,4.9644,4.9645]}]]